Regional Weather Roundup
Issued by NWS Austin/San Antonio, TX

Home | Current Version | Previous Version | Text Only | Print | Product List | Glossary On
Versions: 1 2 3 4 5 6 7 8 9 10 11 12 13 14 15 16 17 18 19 20 21 22 23 24 25 26 27 28 29 30 31 32 33 34 35 36 37 38 39 40 41 42 43 44 45 46 47 48 49 50
000
ASUS44 KEWX 292310
RWREWX
SOUTH TEXAS REGIONAL WEATHER ROUNDUP
NATIONAL WEATHER SERVICE AUSTIN/SAN ANTONIO TX
600 PM CDT SUN MAR 29 2020

NOTE: "FAIR" INDICATED FEW OR NO CLOUDS BELOW 12,000 FEET WITH NO
SIGNIFICANT WEATHER AND/OR OBSTRUCTIONS TO VISIBILITY.

* - THESE STATIONS ARE NOT NWS OR FAA STATIONS...AND ARE NOT SUBJECT
    TO NWS AND FAA QUALITY CONTROL.

TXZ171-172-183>190-300000-
TEXAS HILL COUNTRY AND EDWARDS PLATEAU

CITY           SKY/WX    TMP DP  RH WIND       PRES   REMARKS
JUNCTION       FAIR      73  41  31 E14       30.05F
*LLANO         FAIR      73  39  29 E6        30.10F
BURNET         CLOUDY    71  34  25 E10       30.11S
*HORSESHOE BAY CLOUDY    75  39  27 E3        30.08F
*LAGO VISTA    PTSUNNY   72  37  27 E7G16     30.10S
*KERRVILLE     CLOUDY    72  31  22 SE12      30.08S
*FREDERICKSBRG CLOUDY    73  33  23 SE5       30.08S
*ROCKSPRINGS   CLOUDY    70  28  21 SE15G22   30.11S
*BOERNE        CLOUDY    70  36  28 SE8       30.09S
*CASTROVILLE   CLOUDY    75  37  25 E8        30.07F
HONDO          CLOUDY    74  36  25 SE17      30.06F
*UVALDE        CLOUDY    75  33  21 SE16      30.06S
DEL RIO        NOT AVBL
*LAUGHLIN AFB  CLOUDY    77  30  18 S15       30.01F
*SPOFFORD      NOT AVBL
*EAGLE PASS    CLOUDY    77  27  15 SE9G16    30.03F
CARRIZO SPRGS  CLOUDY    77  32  19 SE8       30.03S
$$

TXZ173-191>194-202-209-217>225-228-300000-
CENTRAL AND SOUTH CENTRAL TEXAS

CITY           SKY/WX    TMP DP  RH WIND       PRES   REMARKS
GEORGETOWN     PTSUNNY   74  41  30 E9        30.10F
*TAYLOR        CLOUDY    73  44  35 E12       30.08F
AUSTIN/BERGSTM CLOUDY    75  48  38 E7        30.07F
AUSTIN/MABRY   PTSUNNY   76  37  24 VRB5G17   30.08F
*PFLUGERVILLE  PTSUNNY   73  43  33 E12       30.08F
SAN MARCOS     CLOUDY    76  45  33 E10       30.08F
NEW BRAUNFELS  CLOUDY    76  45  33 E10       30.05F
*RANDOLPH AFB  CLOUDY    74  41  30 SE9       30.07S
*SEGUIN        NOT AVBL
SAN ANTONIO    CLOUDY    75  40  28 SE12      30.07S
STINSON FIELD  CLOUDY    73  41  31 E9        30.03F
*KELLY FIELD   CLOUDY    74  39  27 E9        30.04F
*PLEASANTON    CLOUDY    72  45  37 E3        30.06S
*KENEDY        CLOUDY    72  53  50 SE15      30.07R
*LA GRANGE     CLOUDY   N/A N/A N/A E3        30.05F
*GIDDINGS      PTSUNNY   76  49  39 E5        30.09S
*GONZALES      CLOUDY    76  45  33 E3        30.06S
$$

TXZ163>164-176>182-195>201-210>213-226-227-235-300000-
SOUTHEAST TEXAS

CITY           SKY/WX    TMP DP  RH WIND       PRES   REMARKS
COLLEGE STN    PTSUNNY   74  49  41 NE6       30.10R
*BRYAN         FAIR      73  52  47 NE5       30.12S
*CALDWELL      CLOUDY    73  52  46 E5        30.09F
*CROCKETT      NOT AVBL
*BRENHAM       CLOUDY    71  55  58 CALM      30.10S
HUNTSVILLE     CLOUDY    73  50  44 NE3       30.11R
CONROE         PTSUNNY   76  47  35 E6        30.10R
HOUSTON BUSH   PTSUNNY   78  44  29 E12       30.07S
HOUSTON HOBBY  PTSUNNY   80  41  24 E14       30.05F
*HOUSTON SW AP PTSUNNY   76  47  35 E8G16     30.06F
PEARLAND       FAIR      79  47  32 E14       30.08S
HOUSTON HOOKS  FAIR      77  43  29 E8        30.08R
ELLINGTON FLD  PTSUNNY   79  43  27 E12       30.06F
SUGAR LAND     CLOUDY    78  42  27 E10       30.06F
*HOUSTON EXEC  CLOUDY    75  50  41 CALM      30.08R
*CLEVELAND MUN FAIR      77  45  31 CALM      30.09S
*WHARTON       CLOUDY    74  40  28 E7        30.06F
*COLUMBUS      CLOUDY    76  38  24 SE8       30.08S
*EAGLE LAKE    CLOUDY    76  48  37 E7        30.07
$$

TXZ214>216-236>238-300000-
THE UPPER TEXAS COAST

CITY           SKY/WX    TMP DP  RH WIND       PRES   REMARKS
*ORANGE        FAIR      77  46  34 E7        30.11R
PORT ARTHUR    FAIR      78  50  37 NE10      30.07F
GALVESTON      CLOUDY    76  53  44 E15       30.07S
ANGLETON       CLOUDY    75  49  39 E12       30.07S
*BAY CITY      LGT RAIN  75  51  43 E8G20     30.06F
PALACIOS       CLOUDY    71  52  50 E15       30.04F
$$

TXZ229>234-239>247-300000-
TEXAS COASTAL BEND AND RIO GRANDE PLAINS

CITY           SKY/WX    TMP DP  RH WIND       PRES   REMARKS
VICTORIA       CLOUDY    72  50  45 MISG      30.06R
*BEEVILLE      CLOUDY    67  58  73 E9G18     30.05R
ROCKPORT       CLOUDY    71  57  61 NE12      30.02S
*PORT ARANSAS  CLOUDY    73  59  62 NE17G26   30.03S
*PORT LAVACA   NOT AVBL
*INGLESIDE     PTSUNNY   72  60  64 E13       30.01F
CORPUS CHRISTI CLOUDY    71  59  65 NE16      30.01F
CORPUS NAS     CLOUDY    74  61  63 E18       30.01F
*ROBSTOWN      CLOUDY    70  56  59 NE14      30.03S
ALICE          CLOUDY    65  59  81 N6        30.02F
KINGSVILLE NAS CLOUDY    75  58  55 NE13      30.00F
COTULLA        CLOUDY    77  38  24 SE14G21   30.04S
LAREDO         CLOUDY    64  53  67 NE13      30.04F
$$

TXZ248>255-300000-
DEEP SOUTH TEXAS

CITY           SKY/WX    TMP DP  RH WIND       PRES   REMARKS
BROWNSVILLE    FAIR      83  69  62 E14       29.95F
PORT ISABEL    FAIR      79  70  74 E15       29.96F
HARLINGEN      FAIR      81  70  69 E18       29.95F
*HEBBRONVILLE  CLOUDY    65  58  77 E8        30.04F
MCALLEN        PTSUNNY   76  66  71 NW8       29.97F
*WESLACO       FAIR      82  66  59 E15G24    29.94
FALFURRIAS     CLOUDY    76  56  51 NE9       30.01F
EDINBURG       CLOUDY    79  65  63 NE13G18   29.97S
*ZAPATA        CLOUDY    63  57  81 N3        30.04F
$$

TXZ213>215-236>238-242>244-246-247-251-254-255-300000-
CMAN STATIONS

STATION/POSITION TIME  TEMP    WIND        PRES    WAVE
                       AIR SEA DIR/SP/G            HT/PER
                 (UTC) (F)     (DEG/KT/KT) (MB)    (FT/S)
SABINE PASS      2218   77 77   70/ 10/ 12 1020.2
NORTH JETTY/GLS  2218   74 73   90/ 17/ 19 1017.2
EAGLE POINT      2224   75 75  100/ 11/ 13 1017.8
MORGANS POINT    2224   77 77   70/ 12/ 15 1018.2
PORT O`CONNOR    2218   71 73              1016.7
PORT ARANSAS     2300   72 72   50/ 17/ 19 1016.0
MALAQUITE BEACH  2224   73 73   30/ 20/ 24 1015.8
BAFFIN BAY       2218   72 75   30/ 20/ 24 1015.9
PORT ISABEL      2224   76 78   80/ 14/ 15 1015.3
$$



USA.gov is the U.S. government's official web portal to all federal, state and local government web resources and services.